Location: Vinland
(47.7731°N, 122.6974°W)
Time: 23:50:03
(UTC+00:00)

Tiros 1 - Pass Details

Date: 31 March 2023
Orbit: 627 x 660 km, 48.4° (Epoch: 28 May)

Event Time Altitude Azimuth Distance (km) Brightness Sun altitude
Exits shadow 12:32:38 21° 245° (WSW) 1,467 8.3 -13.6°
Maximum altitude 12:35:47 75° 162° (SSE) 686 7.2 -13.1°
Drops below altitude 10° 12:40:35 10° 78° (ENE) 2,079 11.2 -12.4°
Sets 12:42:56 0° 77° (ENE) 2,991 12.6 -12.0°
